Location: Newark
(33.6439°N, 114.9881°W)
Time: 22:59:52
(UTC+00:00)

A-11 Canister half - Pass Details

Date: 24 August 2019
Orbit: 1527 x 1682 km, 47.3° (Epoch: 16 September)

Event Time Altitude Azimuth Distance (km) Brightness Sun altitude
Rises 15:41:47 0° 178° (S) 4,754 11.7 30.9°
Reaches altitude 10° 15:46:17 10° 159° (SSE) 3,803 11.5 31.8°
Maximum altitude 15:51:59 17° 123° (ESE) 3,296 12.1 33.0°
Drops below altitude 10° 15:57:45 10° 86° (E) 3,885 12.4 34.1°
Sets 16:02:22 0° 68° (ENE) 4,900 12.4 35.1°
